Powrót do katalogu

JILIN-01 GAOFEN 3E

AktywnyNaukaSSO
NORAD 46457·PAYLOAD·🇨🇳 China

Wystrzelony Sep 15, 2020 z Yellow Sea Launch Area

Loading…

Następne Przeloty (najbliższe 24 godziny)

TLE

ŚwieżeSource: Space-Track

Epoka: Sep 14, 2026, 21:53 UTC

1 46457U 20065D   26257.91238584  .00129022  00000-0  78261-3 0  9994
2 46457  97.2082 313.3366 0009204 175.6610 184.4738 15.77107465333830

Śledź JILIN-01 GAOFEN 3E w czasie rzeczywistym z AllMySat

Download on the App Store